^^
Station Historical Data
Daily Summary for March 19, 2017 Units:  English    Metric   Both
« Previous Day
Next Day »
Daily Weekly Monthly Yearly Custom
  High: Low: Average:
Temperature: 47.9 °F 32.2 °F 38.4 °F
Dew Point: 31.3 °F 26.8 °F 28.9 °F
Humidity: 93 % 49 % 70 %
Wind Speed: 12.0 mph 0.0 mph 3.6 mph
Wind Gust: 18.0 mph - -
Wind:- - SSE
Pressure: 30.25 in 30.15 in -
Precipitation: 0.00 in    
Historical Graphs
 
 
Tabular Data for March 19, 2017
Time Temperature Dew Point Pressure Wind Wind Speed Wind Gust Humidity Rainfall Rate (Hourly) solar Conditions
00:04 33.1 °F 31.3 °F 30.17 in NNE 2.0 mph 9.0 mph 93 % 0.00 in 0.0 W/m2 RA
00:09 33.0 °F 31.2 °F 30.17 in NNE 1.0 mph 5.0 mph 93 % 0.00 in 0.0 W/m2 RA
00:14 33.1 °F 31.3 °F 30.17 in NNE 2.0 mph 4.0 mph 93 % 0.00 in 0.0 W/m2 OVC
00:19 33.1 °F 31.3 °F 30.17 in NNE 1.0 mph 6.0 mph 93 % 0.00 in 0.0 W/m2 OVC
00:24 33.0 °F 31.2 °F 30.17 in NNE 2.0 mph 3.0 mph 93 % 0.00 in 0.0 W/m2 OVC
00:29 33.0 °F 30.9 °F 30.17 in NNE 3.0 mph 4.0 mph 92 % 0.00 in 0.0 W/m2 OVC
00:34 32.9 °F 30.8 °F 30.17 in NNE 3.0 mph 4.0 mph 92 % 0.00 in 0.0 W/m2 OVC
00:39 32.9 °F 30.8 °F 30.17 in NNE 2.0 mph 4.0 mph 92 % 0.00 in 0.0 W/m2 OVC
00:44 32.9 °F 30.8 °F 30.17 in NNE 2.0 mph 3.0 mph 92 % 0.00 in 0.0 W/m2 OVC
00:49 32.9 °F 30.8 °F 30.17 in NNE 1.0 mph 4.0 mph 92 % 0.00 in 0.0 W/m2 OVC
00:54 32.8 °F 30.7 °F 30.17 in NNE 3.0 mph 5.0 mph 92 % 0.00 in 0.0 W/m2 OVC
00:59 32.8 °F 30.7 °F 30.17 in Calm   5.0 mph 92 % 0.00 in 0.0 W/m2 OVC
01:04 32.8 °F 30.7 °F 30.17 in NNE 3.0 mph 9.0 mph 92 % 0.00 in 0.0 W/m2 OVC
01:09 32.8 °F 30.7 °F 30.17 in NNE 3.0 mph 5.0 mph 92 % 0.00 in 0.0 W/m2 OVC
01:14 32.9 °F 30.8 °F 30.16 in NNE 6.0 mph 9.0 mph 92 % 0.00 in 0.0 W/m2 OVC
01:19 32.9 °F 30.6 °F 30.16 in NNE 3.0 mph 7.0 mph 91 % 0.00 in 0.0 W/m2 OVC
01:24 32.8 °F 30.5 °F 30.16 in NNE 3.0 mph 7.0 mph 91 % 0.00 in 0.0 W/m2 OVC
01:29 32.8 °F 30.5 °F 30.16 in NNE 5.0 mph 8.0 mph 91 % 0.00 in 0.0 W/m2 OVC
01:34 32.9 °F 30.6 °F 30.16 in NNE 3.0 mph 9.0 mph 91 % 0.00 in 0.0 W/m2 OVC
01:39 32.9 °F 30.6 °F 30.17 in NNE 6.0 mph 8.0 mph 91 % 0.00 in 0.0 W/m2 OVC
01:44 32.9 °F 30.3 °F 30.16 in NNE 3.0 mph 9.0 mph 90 % 0.00 in 0.0 W/m2 OVC
01:49 32.9 °F 30.3 °F 30.17 in NNE 3.0 mph 9.0 mph 90 % 0.00 in 0.0 W/m2 OVC
01:54 33.0 °F 30.4 °F 30.17 in NNE 3.0 mph 7.0 mph 90 % 0.00 in 0.0 W/m2 OVC
01:59 32.9 °F 30.3 °F 30.17 in NNE 3.0 mph 9.0 mph 90 % 0.00 in 0.0 W/m2 OVC
02:04 33.0 °F 30.1 °F 30.17 in NNE 5.0 mph 8.0 mph 89 % 0.00 in 0.0 W/m2 OVC
02:09 32.9 °F 30.0 °F 30.17 in NNE 5.0 mph 10.0 mph 89 % 0.00 in 0.0 W/m2 OVC
02:14 33.0 °F 30.1 °F 30.16 in NNE 3.0 mph 10.0 mph 89 % 0.00 in 0.0 W/m2 OVC
02:19 33.0 °F 29.8 °F 30.16 in NNE 9.0 mph 11.0 mph 88 % 0.00 in 0.0 W/m2 OVC
02:24 32.9 °F 29.7 °F 30.16 in NNE 6.0 mph 12.0 mph 88 % 0.00 in 0.0 W/m2 OVC
02:29 33.0 °F 29.8 °F 30.16 in NNE 6.0 mph 12.0 mph 88 % 0.00 in 0.0 W/m2 OVC
02:34 33.0 °F 29.6 °F 30.17 in NNE 6.0 mph 9.0 mph 87 % 0.00 in 0.0 W/m2 OVC
02:39 33.0 °F 29.6 °F 30.16 in NNE 3.0 mph 9.0 mph 87 % 0.00 in 0.0 W/m2 OVC
02:44 33.0 °F 29.6 °F 30.16 in NNE 5.0 mph 10.0 mph 87 % 0.00 in 0.0 W/m2 OVC
02:49 33.0 °F 29.3 °F 30.16 in NNE 3.0 mph 12.0 mph 86 % 0.00 in 0.0 W/m2 OVC
02:54 33.1 °F 29.4 °F 30.16 in NNE 5.0 mph 11.0 mph 86 % 0.00 in 0.0 W/m2 OVC
02:59 33.1 °F 29.4 °F 30.16 in NNE 5.0 mph 13.0 mph 86 % 0.00 in 0.0 W/m2 OVC
03:04 33.2 °F 29.2 °F 30.16 in NNE 3.0 mph 13.0 mph 85 % 0.00 in 0.0 W/m2 OVC
03:09 33.2 °F 29.2 °F 30.16 in NNE 7.0 mph 10.0 mph 85 % 0.00 in 0.0 W/m2 OVC
03:14 33.1 °F 29.1 °F 30.16 in NNE 6.0 mph 14.0 mph 85 % 0.00 in 0.0 W/m2 OVC
03:19 33.2 °F 28.9 °F 30.16 in NNE 6.0 mph 12.0 mph 84 % 0.00 in 0.0 W/m2 OVC
03:24 33.2 °F 28.9 °F 30.16 in NNE 8.0 mph 12.0 mph 84 % 0.00 in 0.0 W/m2 OVC
03:29 33.2 °F 28.9 °F 30.16 in NNE 2.0 mph 8.0 mph 84 % 0.00 in 0.0 W/m2 OVC
03:34 33.2 °F 28.9 °F 30.16 in NNE 6.0 mph 11.0 mph 84 % 0.00 in 0.0 W/m2 OVC
03:39 33.2 °F 28.6 °F 30.15 in NE 5.0 mph 14.0 mph 83 % 0.00 in 0.0 W/m2 OVC
03:44 33.2 °F 28.6 °F 30.16 in NE 8.0 mph 11.0 mph 83 % 0.00 in 0.0 W/m2 OVC
03:49 33.2 °F 28.6 °F 30.16 in NE 7.0 mph 12.0 mph 83 % 0.00 in 0.0 W/m2 OVC
03:54 33.2 °F 28.6 °F 30.16 in NE 6.0 mph 12.0 mph 83 % 0.00 in 0.0 W/m2 OVC
03:59 33.2 °F 28.6 °F 30.16 in NE 3.0 mph 11.0 mph 83 % 0.00 in 0.0 W/m2 OVC
04:04 33.2 °F 28.6 °F 30.16 in Calm   6.0 mph 83 % 0.00 in 0.0 W/m2 OVC
04:09 33.2 °F 28.9 °F 30.16 in NNE 3.0 mph 10.0 mph 84 % 0.00 in 0.0 W/m2 OVC
04:14 33.2 °F 28.9 °F 30.16 in NE 6.0 mph 11.0 mph 84 % 0.00 in 0.0 W/m2 OVC
04:19 33.2 °F 28.9 °F 30.16 in NE 3.0 mph 11.0 mph 84 % 0.00 in 0.0 W/m2 OVC
04:24 33.2 °F 28.9 °F 30.17 in NNE 3.0 mph 11.0 mph 84 % 0.00 in 0.0 W/m2 OVC
04:29 33.2 °F 28.9 °F 30.17 in NE 3.0 mph 12.0 mph 84 % 0.00 in 0.0 W/m2 OVC
04:34 33.2 °F 28.9 °F 30.17 in NNE 6.0 mph 9.0 mph 84 % 0.00 in 0.0 W/m2 OVC
04:39 33.2 °F 28.9 °F 30.17 in NNE 3.0 mph 9.0 mph 84 % 0.00 in 0.0 W/m2 OVC
04:44 33.1 °F 28.8 °F 30.17 in NNE 7.0 mph 11.0 mph 84 % 0.00 in 0.0 W/m2 OVC
04:49 33.1 °F 28.8 °F 30.17 in NE 3.0 mph 10.0 mph 84 % 0.00 in 0.0 W/m2 OVC
04:54 33.1 °F 28.8 °F 30.17 in NE 3.0 mph 9.0 mph 84 % 0.00 in 0.0 W/m2 OVC
04:59 33.1 °F 28.8 °F 30.17 in NE 3.0 mph 10.0 mph 84 % 0.00 in 0.0 W/m2 OVC
05:04 33.1 °F 28.8 °F 30.18 in NNE 3.0 mph 10.0 mph 84 % 0.00 in 0.0 W/m2 OVC
05:09 33.1 °F 28.8 °F 30.18 in NE 3.0 mph 12.0 mph 84 % 0.00 in 0.0 W/m2 OVC
05:14 33.1 °F 28.8 °F 30.18 in NE 2.0 mph 9.0 mph 84 % 0.00 in 0.0 W/m2 OVC
05:19 33.1 °F 29.1 °F 30.18 in NE 1.0 mph 6.0 mph 85 % 0.00 in 0.0 W/m2 OVC
05:24 33.1 °F 29.1 °F 30.18 in NE 3.0 mph 6.0 mph 85 % 0.00 in 0.0 W/m2 OVC
05:29 33.1 °F 28.8 °F 30.18 in NNE 8.0 mph 10.0 mph 84 % 0.00 in 0.0 W/m2 OVC
05:34 33.0 °F 28.7 °F 30.18 in NE 6.0 mph 9.0 mph 84 % 0.00 in 0.0 W/m2 OVC
05:39 33.0 °F 28.7 °F 30.19 in NE 5.0 mph 11.0 mph 84 % 0.00 in 0.0 W/m2 OVC
05:44 33.0 °F 28.7 °F 30.19 in NE 3.0 mph 14.0 mph 84 % 0.00 in 0.0 W/m2 OVC
05:49 33.0 °F 28.7 °F 30.19 in NE 6.0 mph 10.0 mph 84 % 0.00 in 0.0 W/m2 OVC
05:54 33.0 °F 28.7 °F 30.19 in NE 7.0 mph 13.0 mph 84 % 0.00 in 0.0 W/m2 OVC
05:59 33.0 °F 28.7 °F 30.19 in NE 7.0 mph 13.0 mph 84 % 0.00 in 0.0 W/m2 OVC
06:04 33.0 °F 28.7 °F 30.19 in NNE 6.0 mph 12.0 mph 84 % 0.00 in 0.0 W/m2 OVC
06:09 33.0 °F 28.7 °F 30.19 in NNE 5.0 mph 11.0 mph 84 % 0.00 in 0.0 W/m2 OVC
06:14 33.0 °F 28.4 °F 30.19 in NE 7.0 mph 13.0 mph 83 % 0.00 in 0.0 W/m2 OVC
06:19 33.0 °F 28.4 °F 30.19 in NE 8.0 mph 13.0 mph 83 % 0.00 in 0.0 W/m2 OVC
06:24 32.9 °F 28.3 °F 30.19 in NE 3.0 mph 7.0 mph 83 % 0.00 in 0.0 W/m2 OVC
06:29 32.9 °F 28.3 °F 30.20 in NE 3.0 mph 10.0 mph 83 % 0.00 in 0.0 W/m2 OVC
06:34 32.9 °F 28.3 °F 30.20 in NE 3.0 mph 8.0 mph 83 % 0.00 in 0.0 W/m2 OVC
06:39 32.9 °F 28.3 °F 30.20 in NNE 2.0 mph 4.0 mph 83 % 0.00 in 0.0 W/m2 OVC
06:44 32.9 °F 28.3 °F 30.20 in NNE 6.0 mph 9.0 mph 83 % 0.00 in 0.0 W/m2 OVC
06:49 32.8 °F 28.2 °F 30.20 in NNE 3.0 mph 11.0 mph 83 % 0.00 in 0.0 W/m2 OVC
06:54 32.6 °F 28.0 °F 30.20 in NNE 7.0 mph 9.0 mph 83 % 0.00 in 0.0 W/m2 OVC
06:59 32.5 °F 27.9 °F 30.20 in NNE 5.0 mph 9.0 mph 83 % 0.00 in 0.0 W/m2 OVC
07:04 32.5 °F 27.9 °F 30.21 in NNE 6.0 mph 10.0 mph 83 % 0.00 in 0.0 W/m2 OVC
07:09 32.4 °F 27.5 °F 30.21 in NNE 3.0 mph 11.0 mph 82 % 0.00 in 0.0 W/m2 OVC
07:14 32.3 °F 27.4 °F 30.21 in NNE 5.0 mph 11.0 mph 82 % 0.00 in 7.0 W/m2 OVC
07:19 32.3 °F 27.4 °F 30.21 in NE 3.0 mph 11.0 mph 82 % 0.00 in 11.0 W/m2 OVC
07:24 32.3 °F 27.4 °F 30.21 in NE 3.0 mph 9.0 mph 82 % 0.00 in 16.0 W/m2 CLR
07:29 32.3 °F 27.4 °F 30.21 in NNE 1.0 mph 5.0 mph 82 % 0.00 in 21.0 W/m2 CLR
07:34 32.2 °F 27.3 °F 30.21 in NNE 3.0 mph 5.0 mph 82 % 0.00 in 28.0 W/m2 CLR
07:39 32.3 °F 27.4 °F 30.21 in NNE 2.0 mph 6.0 mph 82 % 0.00 in 33.0 W/m2 CLR
07:44 32.4 °F 27.5 °F 30.21 in NNE 1.0 mph 4.0 mph 82 % 0.00 in 39.0 W/m2 FEW
07:49 32.4 °F 27.5 °F 30.21 in Calm   3.0 mph 82 % 0.00 in 42.0 W/m2 SCT
07:54 32.3 °F 27.4 °F 30.22 in Calm     82 % 0.00 in 47.0 W/m2 SCT
07:59 32.4 °F 27.5 °F 30.22 in NNE 1.0 mph 3.0 mph 82 % 0.00 in 54.0 W/m2 SCT
08:04 32.4 °F 27.5 °F 30.22 in NNE 2.0 mph 5.0 mph 82 % 0.00 in 58.0 W/m2 SCT
08:09 32.4 °F 27.5 °F 30.22 in NNE 2.0 mph 8.0 mph 82 % 0.00 in 65.0 W/m2 SCT
08:14 32.5 °F 27.3 °F 30.22 in NNE 1.0 mph 4.0 mph 81 % 0.00 in 74.0 W/m2 SCT
08:19 32.6 °F 27.4 °F 30.22 in Calm   4.0 mph 81 % 0.00 in 79.0 W/m2 SCT
08:24 32.7 °F 27.5 °F 30.23 in North 1.0 mph 4.0 mph 81 % 0.00 in 91.0 W/m2 SCT
08:29 32.8 °F 27.6 °F 30.23 in North 3.0 mph 5.0 mph 81 % 0.00 in 95.0 W/m2 SCT
08:34 32.9 °F 27.4 °F 30.23 in North 3.0 mph 5.0 mph 80 % 0.00 in 107.0 W/m2 SCT
08:39 32.9 °F 27.4 °F 30.23 in NNE 1.0 mph 5.0 mph 80 % 0.00 in 118.0 W/m2 SCT
08:44 32.9 °F 27.4 °F 30.23 in NNE 2.0 mph 5.0 mph 80 % 0.00 in 125.0 W/m2 SCT
08:49 33.0 °F 27.2 °F 30.23 in NNE 2.0 mph 6.0 mph 79 % 0.00 in 142.0 W/m2 SCT
08:54 33.1 °F 27.3 °F 30.23 in NNE 1.0 mph 5.0 mph 79 % 0.00 in 137.0 W/m2 SCT
08:59 33.5 °F 27.4 °F 30.23 in NNE 5.0 mph 8.0 mph 78 % 0.00 in 188.0 W/m2 FEW
09:04 33.8 °F 27.7 °F 30.23 in NNE 6.0 mph 9.0 mph 78 % 0.00 in 241.0 W/m2 FEW
09:09 34.0 °F 27.9 °F 30.24 in NNE 3.0 mph 6.0 mph 78 % 0.00 in 186.0 W/m2 SCT
09:19 34.3 °F 27.5 °F 30.24 in NNE 5.0 mph 8.0 mph 76 % 0.00 in 260.0 W/m2 FEW
09:24 34.5 °F 27.7 °F 30.24 in NNE 5.0 mph 9.0 mph 76 % 0.00 in 278.0 W/m2 FEW
09:29 34.8 °F 27.4 °F 30.24 in NNE 6.0 mph 11.0 mph 74 % 0.00 in 257.0 W/m2 FEW
09:34 35.0 °F 27.2 °F 30.24 in NNE 5.0 mph 8.0 mph 73 % 0.00 in 306.0 W/m2 FEW
09:39 35.5 °F 27.7 °F 30.24 in NNE 2.0 mph 7.0 mph 73 % 0.00 in 469.0 W/m2 CLR
09:44 35.9 °F 27.7 °F 30.25 in North 6.0 mph 11.0 mph 72 % 0.00 in 485.0 W/m2 CLR
09:49 35.9 °F 27.4 °F 30.25 in North 3.0 mph 9.0 mph 71 % 0.00 in 510.0 W/m2 CLR
09:54 36.2 °F 27.7 °F 30.25 in NNE 3.0 mph 8.0 mph 71 % 0.00 in 612.0 W/m2 CLR
09:59 36.4 °F 27.5 °F 30.25 in NNE 3.0 mph 9.0 mph 70 % 0.00 in 448.0 W/m2 CLR
10:04 36.5 °F 27.6 °F 30.25 in NNE 6.0 mph 9.0 mph 70 % 0.00 in 564.0 W/m2 CLR
10:09 36.6 °F 27.7 °F 30.25 in NNE 3.0 mph 6.0 mph 70 % 0.00 in 563.0 W/m2 CLR
10:14 36.7 °F 27.5 °F 30.25 in NNE 3.0 mph 9.0 mph 69 % 0.00 in 580.0 W/m2 CLR
10:19 37.1 °F 27.9 °F 30.25 in NNE 5.0 mph 9.0 mph 69 % 0.00 in 591.0 W/m2 CLR
10:24 37.3 °F 27.7 °F 30.25 in NNE 5.0 mph 10.0 mph 68 % 0.00 in 603.0 W/m2 CLR
10:29 37.3 °F 27.7 °F 30.25 in NNE 3.0 mph 9.0 mph 68 % 0.00 in 619.0 W/m2 CLR
10:34 37.6 °F 27.6 °F 30.25 in NNE 5.0 mph 10.0 mph 67 % 0.00 in 631.0 W/m2 CLR
10:39 37.9 °F 27.9 °F 30.25 in NNE 5.0 mph 9.0 mph 67 % 0.00 in 645.0 W/m2 CLR
10:44 37.9 °F 27.9 °F 30.25 in NNE 3.0 mph 9.0 mph 67 % 0.00 in 657.0 W/m2 CLR
10:49 38.1 °F 28.1 °F 30.25 in NNE 5.0 mph 8.0 mph 67 % 0.00 in 670.0 W/m2 CLR
10:54 38.3 °F 27.9 °F 30.25 in NNE 6.0 mph 11.0 mph 66 % 0.00 in 681.0 W/m2 CLR
10:59 38.3 °F 27.9 °F 30.25 in NNE 6.0 mph 8.0 mph 66 % 0.00 in 693.0 W/m2 CLR
11:04 38.2 °F 27.8 °F 30.25 in Calm   5.0 mph 66 % 0.00 in 703.0 W/m2 CLR
11:09 38.6 °F 28.2 °F 30.25 in NNE 3.0 mph 9.0 mph 66 % 0.00 in 714.0 W/m2 CLR
11:14 38.9 °F 28.1 °F 30.25 in NNE 3.0 mph 7.0 mph 65 % 0.00 in 724.0 W/m2 CLR
11:19 38.8 °F 27.7 °F 30.25 in NNE 2.0 mph 6.0 mph 64 % 0.00 in 735.0 W/m2 CLR
11:24 38.9 °F 28.1 °F 30.25 in NNE 1.0 mph 5.0 mph 65 % 0.00 in 744.0 W/m2 CLR
11:29 39.1 °F 27.9 °F 30.25 in NNE 1.0 mph 3.0 mph 64 % 0.00 in 753.0 W/m2 CLR
11:34 39.0 °F 27.5 °F 30.25 in Calm   3.0 mph 63 % 0.00 in 761.0 W/m2 CLR
11:39 39.1 °F 27.2 °F 30.25 in Calm   4.0 mph 62 % 0.00 in 772.0 W/m2 CLR
11:44 39.7 °F 27.7 °F 30.25 in NNE 1.0 mph 4.0 mph 62 % 0.00 in 784.0 W/m2 CLR
11:49 39.9 °F 27.1 °F 30.24 in Calm   7.0 mph 60 % 0.00 in 840.0 W/m2 CLR
11:54 39.9 °F 27.5 °F 30.24 in Calm     61 % 0.00 in 828.0 W/m2 CLR
11:59 40.1 °F 27.7 °F 30.24 in NNE 3.0 mph 6.0 mph 61 % 0.00 in 802.0 W/m2 CLR
12:04 41.0 °F 28.2 °F 30.24 in NNE 1.0 mph 3.0 mph 60 % 0.00 in 806.0 W/m2 CLR
12:09 40.6 °F 27.0 °F 30.24 in Calm   2.0 mph 58 % 0.00 in 812.0 W/m2 CLR
12:14 40.3 °F 27.5 °F 30.24 in Calm     60 % 0.00 in 819.0 W/m2 CLR
12:19 41.2 °F 27.9 °F 30.23 in Calm     59 % 0.00 in 824.0 W/m2 CLR
12:29 41.7 °F 27.6 °F 30.24 in Calm   2.0 mph 57 % 0.00 in 831.0 W/m2 CLR
12:34 41.4 °F 27.3 °F 30.23 in Calm   1.0 mph 57 % 0.00 in 835.0 W/m2 CLR
12:39 41.6 °F 27.9 °F 30.23 in Calm     58 % 0.00 in 836.0 W/m2 CLR
12:44 41.3 °F 26.8 °F 30.23 in Calm   3.0 mph 56 % 0.00 in 837.0 W/m2 CLR
12:49 41.2 °F 27.9 °F 30.23 in Calm   1.0 mph 59 % 0.00 in 840.0 W/m2 CLR
12:54 41.9 °F 28.2 °F 30.23 in WSW 1.0 mph 2.0 mph 58 % 0.00 in 842.0 W/m2 CLR
12:59 42.0 °F 27.9 °F 30.23 in Calm   2.0 mph 57 % 0.00 in 842.0 W/m2 CLR
13:04 42.7 °F 28.1 °F 30.22 in Calm   1.0 mph 56 % 0.00 in 842.0 W/m2 CLR
13:09 42.6 °F 27.5 °F 30.22 in SW 1.0 mph 3.0 mph 55 % 0.00 in 842.0 W/m2 CLR
13:14 42.6 °F 27.5 °F 30.22 in SW 5.0 mph 7.0 mph 55 % 0.00 in 843.0 W/m2 CLR
13:19 42.7 °F 28.1 °F 30.22 in SSW 5.0 mph 7.0 mph 56 % 0.00 in 838.0 W/m2 CLR
13:24 43.0 °F 27.9 °F 30.22 in SSW 3.0 mph 7.0 mph 55 % 0.00 in 838.0 W/m2 CLR
13:29 43.2 °F 28.5 °F 30.22 in SSW 3.0 mph 6.0 mph 56 % 0.00 in 837.0 W/m2 CLR
13:34 43.1 °F 28.0 °F 30.21 in SSW 2.0 mph 7.0 mph 55 % 0.00 in 835.0 W/m2 CLR
13:39 43.1 °F 28.0 °F 30.21 in SSW 3.0 mph 6.0 mph 55 % 0.00 in 831.0 W/m2 CLR
13:44 43.1 °F 28.0 °F 30.21 in SSW 3.0 mph 6.0 mph 55 % 0.00 in 828.0 W/m2 CLR
13:49 42.8 °F 27.7 °F 30.21 in SSW 2.0 mph 7.0 mph 55 % 0.00 in 824.0 W/m2 CLR
13:54 42.5 °F 27.9 °F 30.21 in SSW 2.0 mph 4.0 mph 56 % 0.00 in 821.0 W/m2 CLR
13:59 42.7 °F 28.5 °F 30.20 in SSW 3.0 mph 5.0 mph 57 % 0.00 in 816.0 W/m2 CLR
14:04 43.6 °F 28.0 °F 30.20 in SSW 1.0 mph 6.0 mph 54 % 0.00 in 810.0 W/m2 CLR
14:09 43.0 °F 27.9 °F 30.20 in Calm   4.0 mph 55 % 0.00 in 807.0 W/m2 CLR
14:14 44.1 °F 28.0 °F 30.20 in Calm   5.0 mph 53 % 0.00 in 800.0 W/m2 CLR
14:19 44.4 °F 28.3 °F 30.20 in Calm   5.0 mph 53 % 0.00 in 793.0 W/m2 CLR
14:24 44.9 °F 28.8 °F 30.19 in SSW 1.0 mph 4.0 mph 53 % 0.00 in 789.0 W/m2 CLR
14:29 45.0 °F 28.9 °F 30.19 in SW 1.0 mph 4.0 mph 53 % 0.00 in 779.0 W/m2 CLR
14:39 45.2 °F 28.6 °F 30.18 in WSW 1.0 mph 3.0 mph 52 % 0.00 in 761.0 W/m2 CLR
14:44 45.3 °F 28.2 °F 30.18 in Calm   4.0 mph 51 % 0.00 in 754.0 W/m2 CLR
14:49 45.4 °F 29.3 °F 30.18 in NNW 3.0 mph 4.0 mph 53 % 0.00 in 747.0 W/m2 CLR
14:59 46.7 °F 29.5 °F 30.18 in NW 7.0 mph 15.0 mph 51 % 0.00 in 730.0 W/m2 CLR
15:09 46.8 °F 30.1 °F 30.17 in NW 12.0 mph 17.0 mph 52 % 0.00 in 707.0 W/m2 CLR
15:14 46.6 °F 29.9 °F 30.17 in NW 12.0 mph 15.0 mph 52 % 0.00 in 696.0 W/m2 CLR
15:19 46.6 °F 29.9 °F 30.17 in NW 9.0 mph 15.0 mph 52 % 0.00 in 687.0 W/m2 CLR
15:24 46.7 °F 30.0 °F 30.17 in NW 9.0 mph 17.0 mph 52 % 0.00 in 673.0 W/m2 CLR
15:29 46.8 °F 30.6 °F 30.17 in NW 8.0 mph 15.0 mph 53 % 0.00 in 661.0 W/m2 CLR
15:34 47.0 °F 30.3 °F 30.17 in NW 10.0 mph 16.0 mph 52 % 0.00 in 648.0 W/m2 CLR
15:39 47.2 °F 30.5 °F 30.16 in NW 3.0 mph 13.0 mph 52 % 0.00 in 635.0 W/m2 CLR
15:44 47.4 °F 30.6 °F 30.16 in NNW 7.0 mph 12.0 mph 52 % 0.00 in 621.0 W/m2 CLR
15:49 47.4 °F 29.7 °F 30.16 in NNW 9.0 mph 11.0 mph 50 % 0.00 in 606.0 W/m2 CLR
15:54 47.4 °F 30.2 °F 30.16 in NW 5.0 mph 12.0 mph 51 % 0.00 in 596.0 W/m2 CLR
15:59 47.4 °F 30.2 °F 30.16 in NW 5.0 mph 11.0 mph 51 % 0.00 in 582.0 W/m2 CLR
16:04 47.6 °F 30.3 °F 30.16 in NW 3.0 mph 10.0 mph 51 % 0.00 in 566.0 W/m2 CLR
16:09 47.8 °F 30.0 °F 30.16 in NW 3.0 mph 10.0 mph 50 % 0.00 in 552.0 W/m2 CLR
16:14 47.9 °F 29.6 °F 30.16 in NNW 8.0 mph 12.0 mph 49 % 0.00 in 538.0 W/m2 CLR
16:19 47.5 °F 29.8 °F 30.16 in NNW 7.0 mph 13.0 mph 50 % 0.00 in 524.0 W/m2 CLR
16:24 47.4 °F 30.2 °F 30.16 in NW 9.0 mph 14.0 mph 51 % 0.00 in 508.0 W/m2 CLR
16:29 47.3 °F 30.1 °F 30.16 in NW 12.0 mph 16.0 mph 51 % 0.00 in 492.0 W/m2 CLR
16:34 47.4 °F 30.2 °F 30.16 in NW 7.0 mph 16.0 mph 51 % 0.00 in 476.0 W/m2 CLR
16:39 47.1 °F 29.4 °F 30.16 in NW 5.0 mph 15.0 mph 50 % 0.00 in 459.0 W/m2 CLR
16:44 47.1 °F 29.9 °F 30.16 in NW 10.0 mph 14.0 mph 51 % 0.00 in 442.0 W/m2 CLR
16:49 46.9 °F 29.2 °F 30.16 in NW 5.0 mph 16.0 mph 50 % 0.00 in 424.0 W/m2 CLR
16:54 47.1 °F 29.9 °F 30.16 in NW 10.0 mph 14.0 mph 51 % 0.00 in 408.0 W/m2 CLR
16:59 46.9 °F 30.2 °F 30.16 in NW 8.0 mph 14.0 mph 52 % 0.00 in 390.0 W/m2 CLR
17:04 47.1 °F 29.9 °F 30.16 in NW 9.0 mph 14.0 mph 51 % 0.00 in 376.0 W/m2 CLR
17:09 47.0 °F 29.3 °F 30.16 in NW 7.0 mph 15.0 mph 50 % 0.00 in 357.0 W/m2 CLR
17:14 46.9 °F 29.7 °F 30.17 in NW 7.0 mph 18.0 mph 51 % 0.00 in 339.0 W/m2 CLR
17:19 46.8 °F 29.6 °F 30.17 in NW 6.0 mph 12.0 mph 51 % 0.00 in 321.0 W/m2 CLR
17:24 46.7 °F 29.5 °F 30.17 in NW 10.0 mph 17.0 mph 51 % 0.00 in 304.0 W/m2 CLR
17:29 46.7 °F 30.0 °F 30.17 in NW 8.0 mph 17.0 mph 52 % 0.00 in 285.0 W/m2 CLR
17:34 46.7 °F 30.0 °F 30.17 in NW 8.0 mph 14.0 mph 52 % 0.00 in 265.0 W/m2 CLR
17:39 46.7 °F 29.5 °F 30.17 in NW 7.0 mph 14.0 mph 51 % 0.00 in 248.0 W/m2 CLR
17:44 46.6 °F 29.9 °F 30.17 in NW 5.0 mph 11.0 mph 52 % 0.00 in 223.0 W/m2 CLR
17:49 46.6 °F 29.9 °F 30.17 in NNW 6.0 mph 14.0 mph 52 % 0.00 in 202.0 W/m2 CLR
17:54 46.7 °F 30.0 °F 30.17 in NNW 9.0 mph 13.0 mph 52 % 0.00 in 181.0 W/m2 CLR
17:59 46.5 °F 29.8 °F 30.17 in NNW 5.0 mph 14.0 mph 52 % 0.00 in 162.0 W/m2 CLR
18:09 46.0 °F 29.8 °F 30.17 in NW 7.0 mph 13.0 mph 53 % 0.00 in 120.0 W/m2 FEW
18:14 45.9 °F 29.7 °F 30.17 in NW 9.0 mph 16.0 mph 53 % 0.00 in 104.0 W/m2 FEW
18:19 45.8 °F 29.6 °F 30.17 in NNW 7.0 mph 13.0 mph 53 % 0.00 in 84.0 W/m2 SCT
18:24 45.7 °F 30.0 °F 30.17 in NNW 6.0 mph 9.0 mph 54 % 0.00 in 69.0 W/m2 SCT
18:29 45.6 °F 29.4 °F 30.17 in NNW 5.0 mph 12.0 mph 53 % 0.00 in 53.0 W/m2 SCT
18:34 45.4 °F 29.7 °F 30.18 in NW 8.0 mph 14.0 mph 54 % 0.00 in 40.0 W/m2 BKN
18:39 45.2 °F 29.5 °F 30.18 in NW 6.0 mph 13.0 mph 54 % 0.00 in 19.0 W/m2 OVC
18:44 44.9 °F 29.7 °F 30.18 in NNW 3.0 mph 11.0 mph 55 % 0.00 in 21.0 W/m2 BKN
18:49 44.7 °F 29.5 °F 30.18 in NNW 6.0 mph 11.0 mph 55 % 0.00 in 19.0 W/m2 BKN
18:54 44.4 °F 29.7 °F 30.18 in NNW 3.0 mph 9.0 mph 56 % 0.00 in 14.0 W/m2 BKN
18:59 44.1 °F 29.8 °F 30.18 in NNW 3.0 mph 8.0 mph 57 % 0.00 in 12.0 W/m2 BKN
19:04 43.9 °F 29.6 °F 30.18 in NNW 2.0 mph 6.0 mph 57 % 0.00 in 9.0 W/m2 SCT
19:09 43.7 °F 29.5 °F 30.18 in NNW 3.0 mph 9.0 mph 57 % 0.00 in 5.0 W/m2 FEW
19:14 43.5 °F 29.7 °F 30.18 in NNW 3.0 mph 8.0 mph 58 % 0.00 in 0.0 W/m2 OVC
19:19 43.3 °F 29.5 °F 30.19 in NNW 3.0 mph 9.0 mph 58 % 0.00 in 0.0 W/m2 OVC
19:24 43.1 °F 29.7 °F 30.19 in NNW 3.0 mph 6.0 mph 59 % 0.00 in 0.0 W/m2 OVC
19:29 42.9 °F 29.5 °F 30.19 in NNW 3.0 mph 8.0 mph 59 % 0.00 in 0.0 W/m2 OVC
19:34 42.7 °F 29.4 °F 30.19 in NNW 7.0 mph 14.0 mph 59 % 0.00 in 0.0 W/m2 OVC
19:39 42.5 °F 29.2 °F 30.19 in NNW 3.0 mph 13.0 mph 59 % 0.00 in 0.0 W/m2 OVC
19:44 42.5 °F 29.2 °F 30.20 in NNW 3.0 mph 11.0 mph 59 % 0.00 in 0.0 W/m2 OVC
19:49 42.3 °F 29.4 °F 30.20 in NNW 3.0 mph 9.0 mph 60 % 0.00 in 0.0 W/m2 OVC
19:54 42.1 °F 29.2 °F 30.20 in NNW 3.0 mph 11.0 mph 60 % 0.00 in 0.0 W/m2 OVC
19:59 42.0 °F 29.1 °F 30.20 in NNW 6.0 mph 10.0 mph 60 % 0.00 in 0.0 W/m2 OVC
20:04 41.9 °F 29.0 °F 30.20 in NNW 5.0 mph 9.0 mph 60 % 0.00 in 0.0 W/m2 OVC
20:09 41.9 °F 29.4 °F 30.20 in NNW 3.0 mph 8.0 mph 61 % 0.00 in 0.0 W/m2 OVC
20:14 41.8 °F 28.9 °F 30.20 in NNW 6.0 mph 10.0 mph 60 % 0.00 in 0.0 W/m2 OVC
20:19 41.8 °F 28.9 °F 30.20 in NNW 3.0 mph 10.0 mph 60 % 0.00 in 0.0 W/m2 OVC
20:24 41.8 °F 28.9 °F 30.21 in NNW 2.0 mph 8.0 mph 60 % 0.00 in 0.0 W/m2 OVC
20:29 41.6 °F 29.1 °F 30.21 in NNW 2.0 mph 5.0 mph 61 % 0.00 in 0.0 W/m2 OVC
20:34 41.4 °F 28.9 °F 30.21 in NNW 3.0 mph 6.0 mph 61 % 0.00 in 0.0 W/m2 OVC
20:39 41.3 °F 29.3 °F 30.21 in NNW 3.0 mph 6.0 mph 62 % 0.00 in 0.0 W/m2 OVC
20:44 41.2 °F 29.2 °F 30.21 in NNW 3.0 mph 8.0 mph 62 % 0.00 in 0.0 W/m2 OVC
20:49 41.1 °F 29.1 °F 30.21 in NNW 2.0 mph 6.0 mph 62 % 0.00 in 0.0 W/m2 OVC
20:54 41.1 °F 29.1 °F 30.22 in NNW 1.0 mph 8.0 mph 62 % 0.00 in 0.0 W/m2 OVC
20:59 41.0 °F 29.0 °F 30.22 in Calm   6.0 mph 62 % 0.00 in 0.0 W/m2 OVC
21:04 41.0 °F 29.0 °F 30.22 in Calm   3.0 mph 62 % 0.00 in 0.0 W/m2 OVC
21:09 40.7 °F 28.7 °F 30.22 in Calm   1.0 mph 62 % 0.00 in 0.0 W/m2 OVC
21:14 40.4 °F 28.8 °F 30.23 in NNW 1.0 mph 3.0 mph 63 % 0.00 in 0.0 W/m2 OVC
21:19 40.1 °F 28.9 °F 30.22 in Calm   3.0 mph 64 % 0.00 in 0.0 W/m2 OVC
21:24 39.8 °F 29.0 °F 30.22 in Calm     65 % 0.00 in 0.0 W/m2 OVC
21:29 39.7 °F 28.9 °F 30.22 in Calm   3.0 mph 65 % 0.00 in 0.0 W/m2 OVC
21:34 39.7 °F 28.9 °F 30.22 in Calm     65 % 0.00 in 0.0 W/m2 OVC
21:39 39.7 °F 28.9 °F 30.22 in Calm   2.0 mph 65 % 0.00 in 0.0 W/m2 OVC
21:44 39.7 °F 28.9 °F 30.22 in Calm   2.0 mph 65 % 0.00 in 0.0 W/m2 OVC
21:49 39.7 °F 28.9 °F 30.23 in Calm   2.0 mph 65 % 0.00 in 0.0 W/m2 OVC
21:54 39.8 °F 29.0 °F 30.22 in NNW 1.0 mph 3.0 mph 65 % 0.00 in 0.0 W/m2 OVC
21:59 39.8 °F 29.0 °F 30.22 in NW 1.0 mph 5.0 mph 65 % 0.00 in 0.0 W/m2 OVC
22:04 39.7 °F 28.9 °F 30.22 in Calm   2.0 mph 65 % 0.00 in 0.0 W/m2 OVC
22:09 39.7 °F 28.9 °F 30.22 in Calm   4.0 mph 65 % 0.00 in 0.0 W/m2 OVC
22:14 39.6 °F 28.8 °F 30.22 in NNW 1.0 mph 4.0 mph 65 % 0.00 in 0.0 W/m2 OVC
22:19 39.3 °F 28.9 °F 30.22 in NW 1.0 mph 3.0 mph 66 % 0.00 in 0.0 W/m2 OVC
22:24 39.3 °F 28.9 °F 30.23 in NW 3.0 mph 9.0 mph 66 % 0.00 in 0.0 W/m2 OVC
22:29 39.4 °F 29.0 °F 30.23 in NW 3.0 mph 10.0 mph 66 % 0.00 in 0.0 W/m2 OVC
22:34 39.6 °F 29.2 °F 30.23 in NW 3.0 mph 14.0 mph 66 % 0.00 in 0.0 W/m2 OVC
22:39 39.6 °F 28.8 °F 30.22 in NW 2.0 mph 9.0 mph 65 % 0.00 in 0.0 W/m2 OVC
22:44 39.3 °F 28.9 °F 30.22 in NW 3.0 mph 5.0 mph 66 % 0.00 in 0.0 W/m2 OVC
22:49 39.0 °F 28.6 °F 30.23 in NW 2.0 mph 5.0 mph 66 % 0.00 in 0.0 W/m2 OVC
22:54 38.7 °F 28.7 °F 30.22 in Calm   3.0 mph 67 % 0.00 in 0.0 W/m2 OVC
22:59 38.4 °F 28.8 °F 30.22 in NNW 2.0 mph 4.0 mph 68 % 0.00 in 0.0 W/m2 OVC
23:04 38.2 °F 28.6 °F 30.22 in Calm   5.0 mph 68 % 0.00 in 0.0 W/m2 OVC
23:09 38.1 °F 28.8 °F 30.22 in NNW 1.0 mph 8.0 mph 69 % 0.00 in 0.0 W/m2 OVC
23:14 38.1 °F 28.5 °F 30.22 in NW 3.0 mph 6.0 mph 68 % 0.00 in 0.0 W/m2 OVC
23:19 38.2 °F 28.6 °F 30.22 in NNW 3.0 mph 11.0 mph 68 % 0.00 in 0.0 W/m2 OVC
23:24 38.3 °F 28.7 °F 30.22 in NNW 3.0 mph 13.0 mph 68 % 0.00 in 0.0 W/m2 OVC
23:29 38.2 °F 28.6 °F 30.22 in NNW 3.0 mph 10.0 mph 68 % 0.00 in 0.0 W/m2 OVC
23:34 38.3 °F 28.7 °F 30.22 in NNW 3.0 mph 12.0 mph 68 % 0.00 in 0.0 W/m2 OVC
23:39 38.1 °F 28.5 °F 30.21 in NNW 3.0 mph 6.0 mph 68 % 0.00 in 0.0 W/m2 OVC
23:44 37.8 °F 28.5 °F 30.22 in NNW 3.0 mph 5.0 mph 69 % 0.00 in 0.0 W/m2 OVC
23:49 37.6 °F 28.3 °F 30.21 in NW 1.0 mph 4.0 mph 69 % 0.00 in 0.0 W/m2 OVC
23:54 37.5 °F 28.2 °F 30.21 in NW 2.0 mph 4.0 mph 69 % 0.00 in 0.0 W/m2 OVC
23:59 37.4 °F 28.5 °F 30.21 in NW 2.0 mph 5.0 mph 70 % 0.00 in 0.0 W/m2 OVC
Air Products Campus Weather
Compliments of Weather Underground - 3.25 mb